Ord, NE

10:51 AM CDT on June 26, 2017 (GMT -0500)
Sharp

Weather History for KODX - March, 2013

Change the Weather History Date:

Saturday, March 23, 2013

  Actual Average Record
Temperature  
Mean Temperature 26 °F 41 °F  
Max Temperature 30 °F 54 °F 79 °F (2003)
Min Temperature 22 °F 27 °F 3 °F (2006)
Degree Days  
Heating Degree Days 39 24  
Month to date heating degree days 744 664  
Since 1 July heating degree days 5713 5681  
Cooling Degree Days 0 0  
Month to date cooling degree days 0 0  
Year to date cooling degree days 0 0  
Moisture  
Dew Point 25 °F    
Average Humidity 84    
Maximum Humidity 100    
Minimum Humidity 68    
Precipitation  
Precipitation T in 0.07 in 0.92 in (2017)
Month to date precipitation 0.46 0.74  
Year to date precipitation 2.08 1.55  
Sea Level Pressure  
Sea Level Pressure 30.08 in    
Wind  
Wind Speed 14 mph (NNE)    
Max Wind Speed 24 mph    
Max Gust Speed 30 mph    
Visibility 3 miles    
Events Fog , Snow    
T = Trace of Precipitation, MM = Missing Value Source: NWS Daily Summary

Daily Weather History Graph

Daily Weather History Graph

Search for Another Location

Airport or City:

Trip Planner

Search our weather history database for the weather conditions in past years. The results will help you decide how hot, cold, wet, or windy it might be!

Date:

Astronomy

Mar. 23, 2013 Rise Set
Actual Time 7:33 AM CDT 7:51 PM CDT
Civil Twilight 7:05 AM CDT 8:19 PM CDT
Nautical Twilight 6:33 AM CDT 8:52 PM CDT
Astronomical Twilight 5:59 AM CDT 9:25 PM CDT
Moon 4:17 PM CDT (3/23) 5:13 AM CDT (3/23)
Length of Visible Light 13h 13m
Length of Day
12h 18m
Waxing Gibbous, 85% of the Moon is Illuminated
Mar 23
Waxing Gibbous
Mar 27
Full
Apr 2
Last Quarter
Apr 10
New
Apr 18
First Quarter

Hourly Weather History & Observations

Time (CDT) Temp. Windchill Dew Point Humidity Pressure Visibility Wind Dir Wind Speed Gust Speed Precip Events Conditions
12:02 AM 28.4 °F 21.2 °F 28.4 °F 100% 29.97 in 2.5 mi ESE 6.9 mph - N/A   Overcast
12:53 AM 28.9 °F 25.2 °F 28.0 °F 96% 30.08 in 2.5 mi SE 3.5 mph - N/A   Overcast
1:12 AM 28.4 °F 23.3 °F 28.4 °F 100% 29.99 in 1.5 mi ENE 4.6 mph - N/A   Overcast
1:33 AM 28.4 °F 23.3 °F 28.4 °F 100% 30.00 in 1.0 mi ENE 4.6 mph - N/A   Overcast
1:41 AM 28.4 °F 24.6 °F 28.4 °F 100% 30.00 in 0.8 mi ENE 3.5 mph - N/A   Overcast
1:53 AM 28.9 °F 23.9 °F 28.0 °F 96% 30.08 in 0.8 mi NE 4.6 mph - N/A   Overcast
2:51 AM 28.4 °F 24.6 °F 28.4 °F 100% 30.01 in 1.0 mi ESE 3.5 mph - N/A   Overcast
2:53 AM 28.9 °F 25.2 °F 28.0 °F 96% 30.08 in 1.2 mi ESE 3.5 mph - N/A   Overcast
3:53 AM 28.9 °F 22.8 °F 28.0 °F 96% 30.06 in 1.8 mi NE 5.8 mph - N/A   Overcast
4:00 AM 28.4 °F - 28.4 °F 100% 30.01 in 2.0 mi Calm Calm - N/A   Overcast
4:08 AM 28.4 °F 23.3 °F 28.4 °F 100% 30.01 in 1.8 mi NNE 4.6 mph - N/A   Overcast
4:17 AM 28.4 °F 20.4 °F 28.4 °F 100% 30.01 in 2.0 mi North 8.1 mph - N/A   Overcast
4:24 AM 28.4 °F 22.2 °F 28.4 °F 100% 30.01 in 1.8 mi NNE 5.8 mph - N/A   Overcast
4:32 AM 28.4 °F 21.2 °F 28.4 °F 100% 30.01 in 2.0 mi NE 6.9 mph - N/A   Overcast
4:43 AM 28.4 °F 22.2 °F 28.4 °F 100% 30.01 in 1.5 mi NE 5.8 mph - N/A   Overcast
4:53 AM 28.0 °F 20.0 °F 27.0 °F 96% 30.09 in 1.5 mi NE 8.1 mph - N/A   Overcast
5:17 AM 28.4 °F 22.2 °F 26.6 °F 93% 30.01 in 2.0 mi NNE 5.8 mph - N/A   Overcast
5:53 AM 28.0 °F 20.8 °F 27.0 °F 96% 30.09 in 1.5 mi NE 6.9 mph - N/A   Overcast
6:08 AM 28.4 °F 20.4 °F 26.6 °F 93% 30.02 in 2.0 mi NNE 8.1 mph - N/A   Overcast
6:34 AM 28.4 °F 20.4 °F 26.6 °F 93% 30.02 in 3.0 mi NNE 8.1 mph - N/A   Overcast
6:53 AM 28.0 °F 20.8 °F 26.1 °F 92% 30.10 in 4.0 mi NNE 6.9 mph - N/A   Overcast
7:53 AM 28.0 °F 18.6 °F 26.1 °F 92% 30.12 in 2.5 mi North 10.4 mph - N/A   Overcast
8:00 AM 28.4 °F 18.5 °F 26.6 °F 93% 30.05 in 3.0 mi North 11.5 mph - N/A   Overcast
8:32 AM 28.4 °F 19.1 °F 26.6 °F 93% 30.06 in 4.0 mi NNE 10.4 mph - N/A   Overcast
8:36 AM 28.4 °F 19.1 °F 26.6 °F 93% 30.06 in 4.0 mi NNE 10.4 mph - N/A   Overcast
8:51 AM 28.4 °F 18.0 °F 26.6 °F 93% 30.06 in 3.0 mi NNE 12.7 mph - N/A   Overcast
8:53 AM 28.0 °F 17.5 °F 26.1 °F 92% 30.13 in 3.0 mi NNE 12.7 mph - N/A   Overcast
9:00 AM 28.4 °F 19.1 °F 26.6 °F 93% 30.06 in 4.0 mi NNE 10.4 mph - N/A   Overcast
9:07 AM 28.4 °F 19.1 °F 26.6 °F 93% 30.07 in 4.0 mi NNE 10.4 mph - N/A   Overcast
9:20 AM 28.4 °F 18.5 °F 24.8 °F 86% 30.07 in 5.0 mi NNE 11.5 mph - N/A   Overcast
9:47 AM 28.4 °F 17.5 °F 24.8 °F 86% 30.06 in 5.0 mi NNE 13.8 mph - N/A   Overcast
9:53 AM 28.0 °F 16.5 °F 25.0 °F 88% 30.14 in 5.0 mi NNE 15.0 mph - N/A   Overcast
10:40 AM 28.4 °F 18.5 °F 26.6 °F 93% 30.06 in 5.0 mi NNE 11.5 mph - N/A   Overcast
10:50 AM 28.4 °F 17.5 °F 24.8 °F 86% 30.06 in 5.0 mi NNE 13.8 mph - N/A   Overcast
10:53 AM 28.9 °F 17.7 °F 25.0 °F 85% 30.14 in 5.0 mi North 15.0 mph - N/A   Overcast
11:19 AM 28.4 °F 18.0 °F 24.8 °F 86% 30.06 in 5.0 mi NNE 12.7 mph - N/A   Overcast
11:38 AM 28.4 °F 18.0 °F 26.6 °F 93% 30.07 in 2.0 mi NNE 12.7 mph - 0.00 in Snow Light Snow
11:53 AM 28.9 °F 18.6 °F 25.0 °F 85% 30.14 in 2.5 mi NNE 12.7 mph - 0.00 in Snow Light Snow
11:57 AM 28.4 °F 18.5 °F 24.8 °F 86% 30.07 in 3.0 mi NNE 11.5 mph - 0.00 in Snow Light Snow
12:17 PM 28.4 °F 16.6 °F 24.8 °F 86% 30.07 in 3.0 mi North 16.1 mph 20.7 mph 0.00 in Snow Light Snow
12:27 PM 28.4 °F 17.0 °F 24.8 °F 86% 30.07 in 2.5 mi NNE 15.0 mph - 0.00 in Snow Light Snow
12:33 PM 28.4 °F 17.5 °F 24.8 °F 86% 30.07 in 1.8 mi NNE 13.8 mph - 0.00 in Snow Light Snow
12:40 PM 28.4 °F 18.0 °F 24.8 °F 86% 30.07 in 1.0 mi North 12.7 mph - 0.00 in Snow Light Snow
12:49 PM 28.4 °F 18.0 °F 26.6 °F 93% 30.07 in 0.5 mi North 12.7 mph - 0.00 in Fog , Snow Light Snow
12:53 PM 28.9 °F 19.8 °F 26.1 °F 89% 30.14 in 0.5 mi North 10.4 mph - 0.00 in Fog , Snow Light Snow
1:00 PM 28.4 °F 18.0 °F 26.6 °F 93% 30.07 in 0.5 mi NNE 12.7 mph - 0.00 in Fog , Snow Light Snow
1:12 PM 30.2 °F 20.2 °F 26.6 °F 86% 30.07 in 1.0 mi NNE 12.7 mph - 0.00 in Snow Light Snow
1:51 PM 30.2 °F 18.5 °F 26.6 °F 86% 30.07 in 1.0 mi NNE 17.3 mph - 0.00 in Snow Light Snow
1:53 PM 30.0 °F 17.9 °F 26.1 °F 85% 30.14 in 1.0 mi NNE 18.4 mph - 0.00 in Snow Light Snow
2:27 PM 28.4 °F 15.8 °F 24.8 °F 86% 30.07 in 0.8 mi North 18.4 mph - 0.00 in Snow Light Snow
2:31 PM 28.4 °F 15.8 °F 24.8 °F 86% 30.06 in 1.2 mi North 18.4 mph - 0.00 in Snow Light Snow
2:42 PM 28.4 °F 16.6 °F 24.8 °F 86% 30.06 in 2.0 mi North 16.1 mph - 0.00 in Snow Light Snow
2:49 PM 28.4 °F 16.2 °F 24.8 °F 86% 30.06 in 3.0 mi North 17.3 mph - 0.00 in Snow Light Snow
2:53 PM 28.9 °F 16.9 °F 24.1 °F 82% 30.14 in 4.0 mi North 17.3 mph 24.2 mph 0.00 in   Overcast
3:01 PM 28.4 °F 17.0 °F 24.8 °F 86% 30.06 in 6.0 mi North 15.0 mph - 0.00 in   Overcast
3:37 PM 28.4 °F 16.2 °F 24.8 °F 86% 30.06 in 5.0 mi North 17.3 mph 26.5 mph 0.00 in   Overcast
3:53 PM 28.0 °F 14.3 °F 23.0 °F 81% 30.14 in 3.0 mi North 21.9 mph 26.5 mph 0.00 in   Overcast
4:05 PM 28.4 °F 15.1 °F 23.0 °F 80% 30.07 in 2.5 mi North 20.7 mph - 0.00 in   Overcast
4:49 PM 26.6 °F 12.7 °F 23.0 °F 86% 30.07 in 1.5 mi North 20.7 mph 25.3 mph 0.00 in Snow Light Snow
4:53 PM 27.0 °F 13.2 °F 21.9 °F 81% 30.15 in 1.5 mi North 20.7 mph 27.6 mph 0.00 in Snow Light Snow
5:00 PM 26.6 °F 12.7 °F 21.2 °F 80% 30.07 in 1.5 mi North 20.7 mph - 0.00 in Snow Light Snow
5:30 PM 26.6 °F 14.3 °F 21.2 °F 80% 30.08 in 2.0 mi North 16.1 mph - 0.00 in Snow Light Snow
5:37 PM 26.6 °F 13.1 °F 21.2 °F 80% 30.08 in 3.0 mi North 19.6 mph - 0.00 in   Overcast
5:53 PM 26.1 °F 12.0 °F 21.0 °F 81% 30.17 in 5.0 mi North 20.7 mph 25.3 mph 0.00 in   Overcast
6:08 PM 26.6 °F 12.7 °F 21.2 °F 80% 30.09 in 2.0 mi North 20.7 mph 25.3 mph 0.00 in Snow Light Snow
6:19 PM 26.6 °F 12.7 °F 21.2 °F 80% 30.10 in 2.5 mi North 20.7 mph 26.5 mph 0.00 in Snow Light Snow
6:27 PM 24.8 °F 11.1 °F 21.2 °F 86% 30.10 in 3.0 mi North 18.4 mph - 0.00 in   Overcast
6:42 PM 24.8 °F 11.5 °F 21.2 °F 86% 30.10 in 1.8 mi North 17.3 mph - 0.00 in Snow Light Snow
6:53 PM 25.0 °F 10.9 °F 21.0 °F 85% 30.19 in 1.5 mi North 19.6 mph 27.6 mph 0.00 in Snow Light Snow
7:17 PM 24.8 °F 11.1 °F 19.4 °F 80% 30.11 in 2.0 mi NNW 18.4 mph - 0.00 in Snow Light Snow
7:48 PM 24.8 °F 11.5 °F 19.4 °F 80% 30.12 in 3.0 mi NNW 17.3 mph 25.3 mph 0.00 in   Overcast
7:53 PM 24.1 °F 11.0 °F 19.0 °F 81% 30.21 in 3.0 mi North 16.1 mph 25.3 mph 0.00 in   Overcast
8:53 PM 24.1 °F 9.4 °F 19.0 °F 81% 30.21 in 10.0 mi North 20.7 mph 24.2 mph 0.00 in   Overcast
9:53 PM 24.1 °F 9.8 °F 16.0 °F 71% 30.22 in 10.0 mi North 19.6 mph 27.6 mph N/A   Overcast
10:53 PM 23.0 °F 8.3 °F 16.0 °F 74% 30.22 in 10.0 mi North 19.6 mph 24.2 mph N/A   Overcast
11:53 PM 21.9 °F 8.2 °F 16.0 °F 78% 30.23 in 10.0 mi North 16.1 mph 24.2 mph N/A   Scattered Clouds